Year,Month,Day,Hour,Minute,Value (Times are PST for temperature in C)
2018,04,25,00,00,8.20
2018,04,25,00,01,8.20
2018,04,25,00,02,8.20
2018,04,25,00,03,8.20
2018,04,25,00,04,8.20
2018,04,25,00,05,8.20
2018,04,25,00,06,8.10
2018,04,25,00,07,8.00
2018,04,25,00,08,8.10
2018,04,25,00,09,8.10
2018,04,25,00,10,8.10
2018,04,25,00,11,8.10
2018,04,25,00,12,8.10
2018,04,25,00,13,8.10
2018,04,25,00,14,8.10
2018,04,25,00,15,8.10
2018,04,25,00,16,8.10
2018,04,25,00,17,8.00
2018,04,25,00,18,8.00
2018,04,25,00,19,7.90
2018,04,25,00,20,7.90
2018,04,25,00,21,7.90
2018,04,25,00,22,7.90
2018,04,25,00,23,7.90
2018,04,25,00,24,7.80
2018,04,25,00,25,7.80
2018,04,25,00,26,7.80
2018,04,25,00,27,7.80
2018,04,25,00,28,7.80
2018,04,25,00,29,7.70
2018,04,25,00,30,7.70
2018,04,25,00,31,7.70
2018,04,25,00,32,7.70
2018,04,25,00,33,7.60
2018,04,25,00,34,7.60
2018,04,25,00,35,7.60
2018,04,25,00,36,7.60
2018,04,25,00,37,7.60
2018,04,25,00,38,7.50
2018,04,25,00,39,7.50
2018,04,25,00,40,7.50
2018,04,25,00,41,7.50
2018,04,25,00,42,7.50
2018,04,25,00,43,7.50
2018,04,25,00,44,7.50
2018,04,25,00,45,7.50
2018,04,25,00,46,7.50
2018,04,25,00,47,7.50
2018,04,25,00,48,7.50
2018,04,25,00,49,7.40
2018,04,25,00,50,7.40
2018,04,25,00,51,7.40
2018,04,25,00,52,7.30
2018,04,25,00,53,7.30
2018,04,25,00,54,7.30
2018,04,25,00,55,7.30
2018,04,25,00,56,7.30
2018,04,25,00,57,7.30
2018,04,25,00,58,7.30
2018,04,25,00,59,7.30
2018,04,25,01,00,7.30
2018,04,25,01,01,7.30
2018,04,25,01,02,7.20
2018,04,25,01,03,7.30
2018,04,25,01,04,7.30
2018,04,25,01,05,7.30
2018,04,25,01,06,7.30
2018,04,25,01,07,7.30
2018,04,25,01,08,7.30
2018,04,25,01,09,7.30
2018,04,25,01,10,7.30
2018,04,25,01,11,7.20
2018,04,25,01,12,7.20
2018,04,25,01,13,7.20
2018,04,25,01,14,7.20
2018,04,25,01,15,7.10
2018,04,25,01,16,7.10
2018,04,25,01,17,7.00
2018,04,25,01,18,7.00
2018,04,25,01,19,6.90
2018,04,25,01,20,6.90
2018,04,25,01,21,6.80
2018,04,25,01,22,6.80
2018,04,25,01,23,6.80
2018,04,25,01,24,6.80
2018,04,25,01,25,6.80
2018,04,25,01,26,6.70
2018,04,25,01,27,6.70
2018,04,25,01,28,6.70
2018,04,25,01,29,6.70
2018,04,25,01,30,6.70
2018,04,25,01,31,6.70
2018,04,25,01,32,6.70
2018,04,25,01,33,6.80
2018,04,25,01,34,6.80
2018,04,25,01,35,6.80
2018,04,25,01,36,6.80
2018,04,25,01,37,6.80
2018,04,25,01,38,6.80
2018,04,25,01,39,6.80
2018,04,25,01,40,6.80
2018,04,25,01,41,6.80
2018,04,25,01,42,6.80
2018,04,25,01,43,6.80
2018,04,25,01,44,6.80
2018,04,25,01,45,6.80
2018,04,25,01,46,6.80
2018,04,25,01,47,6.70
2018,04,25,01,48,6.70
2018,04,25,01,49,6.70
2018,04,25,01,50,6.70
2018,04,25,01,51,6.70
2018,04,25,01,52,6.70
2018,04,25,01,53,6.70
2018,04,25,01,54,6.70
2018,04,25,01,55,6.70
2018,04,25,01,56,6.70
2018,04,25,01,57,6.70
2018,04,25,01,58,6.70
2018,04,25,01,59,6.70
2018,04,25,02,00,6.70
2018,04,25,02,01,6.70
2018,04,25,02,02,6.70
2018,04,25,02,03,6.70
2018,04,25,02,04,6.70
2018,04,25,02,05,6.70
2018,04,25,02,06,6.60
2018,04,25,02,07,6.60
2018,04,25,02,08,6.60
2018,04,25,02,09,6.60
2018,04,25,02,10,6.50
2018,04,25,02,11,6.50
2018,04,25,02,12,6.40
2018,04,25,02,13,6.40
2018,04,25,02,14,6.40
2018,04,25,02,15,6.40
2018,04,25,02,16,6.30
2018,04,25,02,17,6.30
2018,04,25,02,18,6.30
2018,04,25,02,19,6.30
2018,04,25,02,20,6.30
2018,04,25,02,21,6.30
2018,04,25,02,22,6.30
2018,04,25,02,23,6.30
2018,04,25,02,24,6.30
2018,04,25,02,25,6.30
2018,04,25,02,26,6.30
2018,04,25,02,27,6.30
2018,04,25,02,28,6.30
2018,04,25,02,29,6.30
2018,04,25,02,30,6.30
2018,04,25,02,31,6.30
2018,04,25,02,32,6.30
2018,04,25,02,33,6.20
2018,04,25,02,34,6.20
2018,04,25,02,35,6.20
2018,04,25,02,36,6.20
2018,04,25,02,37,6.20
2018,04,25,02,38,6.10
2018,04,25,02,39,6.10
2018,04,25,02,40,6.10
2018,04,25,02,41,6.10
2018,04,25,02,42,6.10
2018,04,25,02,43,6.10
2018,04,25,02,44,6.10
2018,04,25,02,45,6.10
2018,04,25,02,46,6.10
2018,04,25,02,47,6.10
2018,04,25,02,48,6.10
2018,04,25,02,49,6.10
2018,04,25,02,50,6.10
2018,04,25,02,51,6.10
2018,04,25,02,52,6.10
2018,04,25,02,53,6.10
2018,04,25,02,54,6.10
2018,04,25,02,55,6.10
2018,04,25,02,56,6.10
2018,04,25,02,57,6.10
2018,04,25,02,58,6.00
2018,04,25,02,59,6.00
2018,04,25,03,00,6.00
2018,04,25,03,01,6.00
2018,04,25,03,02,5.90
2018,04,25,03,03,5.90
2018,04,25,03,04,5.90
2018,04,25,03,05,5.90
2018,04,25,03,06,5.90
2018,04,25,03,07,5.90
2018,04,25,03,08,5.90
2018,04,25,03,09,5.90
2018,04,25,03,10,5.90
2018,04,25,03,11,5.90
2018,04,25,03,12,5.90
2018,04,25,03,13,5.90
2018,04,25,03,14,5.90
2018,04,25,03,15,5.90
2018,04,25,03,16,5.90
2018,04,25,03,17,5.80
2018,04,25,03,18,5.80
2018,04,25,03,19,5.80
2018,04,25,03,20,5.80
2018,04,25,03,21,5.80
2018,04,25,03,22,5.70
2018,04,25,03,23,5.70
2018,04,25,03,24,5.70
2018,04,25,03,25,5.70
2018,04,25,03,26,5.70
2018,04,25,03,27,5.60
2018,04,25,03,28,5.60
2018,04,25,03,29,5.60
2018,04,25,03,30,5.60
2018,04,25,03,31,5.60
2018,04,25,03,32,5.60
2018,04,25,03,33,5.60
2018,04,25,03,34,5.60
2018,04,25,03,35,5.60
2018,04,25,03,36,5.60
2018,04,25,03,37,5.70
2018,04,25,03,38,5.70
2018,04,25,03,39,5.70
2018,04,25,03,40,5.60
2018,04,25,03,41,5.60
2018,04,25,03,42,5.60
2018,04,25,03,43,5.60
2018,04,25,03,44,5.50
2018,04,25,03,45,5.50
2018,04,25,03,46,5.50
2018,04,25,03,47,5.50
2018,04,25,03,48,5.40
2018,04,25,03,49,5.40
2018,04,25,03,50,5.40
2018,04,25,03,51,5.40
2018,04,25,03,52,5.40
2018,04,25,03,53,5.40
2018,04,25,03,54,5.40
2018,04,25,03,55,5.40
2018,04,25,03,56,5.50
2018,04,25,03,57,5.50
2018,04,25,03,58,5.50
2018,04,25,03,59,5.50
2018,04,25,04,00,5.50
2018,04,25,04,01,5.40
2018,04,25,04,02,5.40
2018,04,25,04,03,5.40
2018,04,25,04,04,5.40
2018,04,25,04,05,5.40
2018,04,25,04,06,5.40
2018,04,25,04,07,5.40
2018,04,25,04,08,5.40
2018,04,25,04,09,5.40
2018,04,25,04,10,5.40
2018,04,25,04,11,5.40
2018,04,25,04,12,5.40
2018,04,25,04,13,5.40
2018,04,25,04,14,5.40
2018,04,25,04,15,5.30
2018,04,25,04,16,5.30
2018,04,25,04,17,5.30
2018,04,25,04,18,5.20
2018,04,25,04,19,5.20
2018,04,25,04,20,5.20
2018,04,25,04,21,5.20
2018,04,25,04,22,5.20
2018,04,25,04,23,5.20
2018,04,25,04,24,5.20
2018,04,25,04,25,5.20
2018,04,25,04,26,5.20
2018,04,25,04,27,5.20
2018,04,25,04,28,5.20
2018,04,25,04,29,5.20
2018,04,25,04,30,5.20
2018,04,25,04,31,5.20
2018,04,25,04,32,5.20
2018,04,25,04,33,5.20
2018,04,25,04,34,5.20
2018,04,25,04,35,5.20
2018,04,25,04,36,5.20
2018,04,25,04,37,5.10
2018,04,25,04,38,5.10
2018,04,25,04,39,5.20
2018,04,25,04,40,5.20
2018,04,25,04,41,5.20
2018,04,25,04,42,5.20
2018,04,25,04,43,5.20
2018,04,25,04,44,5.20
2018,04,25,04,45,5.20
2018,04,25,04,46,5.20
2018,04,25,04,47,5.20
2018,04,25,04,48,5.20
2018,04,25,04,49,5.20
2018,04,25,04,50,5.20
2018,04,25,04,51,5.20
2018,04,25,04,52,5.20
2018,04,25,04,53,5.20
2018,04,25,04,54,5.20
2018,04,25,04,55,5.20
2018,04,25,04,56,5.20
2018,04,25,04,57,5.20
2018,04,25,04,58,5.20
2018,04,25,04,59,5.20
2018,04,25,05,00,5.20
2018,04,25,05,01,5.10
2018,04,25,05,02,5.10
2018,04,25,05,03,5.00
2018,04,25,05,04,5.00
2018,04,25,05,05,5.00
2018,04,25,05,06,5.00
2018,04,25,05,07,5.00
2018,04,25,05,08,4.90
2018,04,25,05,09,4.90
2018,04,25,05,10,4.90
2018,04,25,05,11,4.80
2018,04,25,05,12,4.80
2018,04,25,05,13,4.80
2018,04,25,05,14,4.80
2018,04,25,05,15,4.80
2018,04,25,05,16,4.80
2018,04,25,05,17,4.80
2018,04,25,05,18,4.80
2018,04,25,05,19,4.80
2018,04,25,05,20,4.80
2018,04,25,05,21,4.80
2018,04,25,05,22,4.80
2018,04,25,05,23,4.80
2018,04,25,05,24,4.80
2018,04,25,05,25,4.80
2018,04,25,05,26,4.70
2018,04,25,05,27,4.70
2018,04,25,05,28,4.70
2018,04,25,05,29,4.70
2018,04,25,05,30,4.70
2018,04,25,05,31,4.70
2018,04,25,05,32,4.70
2018,04,25,05,33,4.70
2018,04,25,05,34,4.70
2018,04,25,05,35,4.70
2018,04,25,05,36,4.70
2018,04,25,05,37,4.70
2018,04,25,05,38,4.70
2018,04,25,05,39,4.70
2018,04,25,05,40,4.70
2018,04,25,05,41,4.70
2018,04,25,05,42,4.70
2018,04,25,05,43,4.60
2018,04,25,05,44,4.70
2018,04,25,05,45,4.70
2018,04,25,05,46,4.60
2018,04,25,05,47,4.60
2018,04,25,05,48,4.60
2018,04,25,05,49,4.60
2018,04,25,05,50,4.60
2018,04,25,05,51,4.60
2018,04,25,05,52,4.60
2018,04,25,05,53,4.60
2018,04,25,05,54,4.70
2018,04,25,05,55,4.70
2018,04,25,05,56,4.70
2018,04,25,05,57,4.70
2018,04,25,05,58,4.70
2018,04,25,05,59,4.70
2018,04,25,06,00,4.70
2018,04,25,06,01,4.70
2018,04,25,06,02,4.70
2018,04,25,06,03,4.70
2018,04,25,06,04,4.70
2018,04,25,06,05,4.70
2018,04,25,06,06,4.70
2018,04,25,06,07,4.60
2018,04,25,06,08,4.60
2018,04,25,06,09,4.60
2018,04,25,06,10,4.60
2018,04,25,06,11,4.50
2018,04,25,06,12,4.50
2018,04,25,06,13,4.50
2018,04,25,06,14,4.40
2018,04,25,06,15,4.40
2018,04,25,06,16,4.40
2018,04,25,06,17,4.40
2018,04,25,06,18,4.50
2018,04,25,06,19,4.50
2018,04,25,06,20,4.50
2018,04,25,06,21,4.50
2018,04,25,06,22,4.50
2018,04,25,06,23,4.50
2018,04,25,06,24,4.50
2018,04,25,06,25,4.50
2018,04,25,06,26,4.60
2018,04,25,06,27,4.60
2018,04,25,06,28,4.60
2018,04,25,06,29,4.60
2018,04,25,06,30,4.60
2018,04,25,06,31,4.60
2018,04,25,06,32,4.60
2018,04,25,06,33,4.60
2018,04,25,06,34,4.60
2018,04,25,06,35,4.60
2018,04,25,06,36,4.60
2018,04,25,06,37,4.60
2018,04,25,06,38,4.60
2018,04,25,06,39,4.60
2018,04,25,06,40,4.60
2018,04,25,06,41,4.60
2018,04,25,06,42,4.50
2018,04,25,06,43,4.50
2018,04,25,06,44,4.50
2018,04,25,06,45,4.50
2018,04,25,06,46,4.50
2018,04,25,06,47,4.50
2018,04,25,06,48,4.50
2018,04,25,06,49,4.60
2018,04,25,06,50,4.60
2018,04,25,06,51,4.60
2018,04,25,06,52,4.60
2018,04,25,06,53,4.60
2018,04,25,06,54,4.70
2018,04,25,06,55,4.70
2018,04,25,06,56,4.70
2018,04,25,06,57,4.70
2018,04,25,06,58,4.70
2018,04,25,06,59,4.70
2018,04,25,07,00,4.70
2018,04,25,07,01,4.70
2018,04,25,07,02,4.70
2018,04,25,07,03,4.70
2018,04,25,07,04,4.70
2018,04,25,07,05,4.70
2018,04,25,07,06,4.70
2018,04,25,07,07,4.70
2018,04,25,07,08,4.70
2018,04,25,07,09,4.70
2018,04,25,07,10,4.70
2018,04,25,07,11,4.70
2018,04,25,07,12,4.70
2018,04,25,07,13,4.70
2018,04,25,07,14,4.70
2018,04,25,07,15,4.70
2018,04,25,07,16,4.70
2018,04,25,07,17,4.70
2018,04,25,07,18,4.70
2018,04,25,07,19,4.80
2018,04,25,07,20,4.80
2018,04,25,07,21,4.80
2018,04,25,07,22,4.80
2018,04,25,07,23,4.80
2018,04,25,07,24,4.90
2018,04,25,07,25,4.90
2018,04,25,07,26,4.90
2018,04,25,07,27,4.90
2018,04,25,07,28,4.90
2018,04,25,07,29,5.00
2018,04,25,07,30,5.10
2018,04,25,07,31,5.20
2018,04,25,07,32,5.20
2018,04,25,07,33,5.30
2018,04,25,07,34,5.40
2018,04,25,07,35,5.50
2018,04,25,07,36,5.60
2018,04,25,07,37,5.70
2018,04,25,07,38,5.80
2018,04,25,07,39,5.80
2018,04,25,07,40,5.90
2018,04,25,07,41,6.00
2018,04,25,07,42,6.10
2018,04,25,07,43,6.20
2018,04,25,07,44,6.30
2018,04,25,07,45,6.30
2018,04,25,07,46,6.40
2018,04,25,07,47,6.50
2018,04,25,07,48,6.60
2018,04,25,07,49,6.70
2018,04,25,07,50,6.80
2018,04,25,07,51,6.90
2018,04,25,07,52,7.00
2018,04,25,07,53,7.00
2018,04,25,07,54,7.20
2018,04,25,07,55,7.20
2018,04,25,07,56,7.30
2018,04,25,07,57,7.40
2018,04,25,07,58,7.50
2018,04,25,07,59,7.60
2018,04,25,08,00,7.60
2018,04,25,08,01,7.70
2018,04,25,08,02,7.70
2018,04,25,08,03,7.80
2018,04,25,08,04,7.80
2018,04,25,08,05,7.90
2018,04,25,08,06,7.90
2018,04,25,08,07,8.00
2018,04,25,08,08,8.10
2018,04,25,08,09,8.10
2018,04,25,08,10,8.20
2018,04,25,08,11,8.20
2018,04,25,08,12,8.30
2018,04,25,08,13,8.40
2018,04,25,08,14,8.50
2018,04,25,08,15,8.60
2018,04,25,08,16,8.60
2018,04,25,08,17,8.70
2018,04,25,08,18,8.80
2018,04,25,08,19,8.80
2018,04,25,08,20,8.90
2018,04,25,08,21,8.90
2018,04,25,08,22,9.00
2018,04,25,08,23,9.00
2018,04,25,08,24,9.10
2018,04,25,08,25,9.10
2018,04,25,08,26,9.20
2018,04,25,08,27,9.20
2018,04,25,08,28,9.30
2018,04,25,08,29,9.30
2018,04,25,08,30,9.40
2018,04,25,08,31,9.50
2018,04,25,08,32,9.60
2018,04,25,08,33,9.70
2018,04,25,08,34,9.80
2018,04,25,08,35,9.90
2018,04,25,08,36,10.00
2018,04,25,08,37,10.10
2018,04,25,08,38,10.20
2018,04,25,08,39,10.20
2018,04,25,08,40,10.30
2018,04,25,08,41,10.30
2018,04,25,08,42,10.40
2018,04,25,08,43,10.40
2018,04,25,08,44,10.50
2018,04,25,08,45,10.60
2018,04,25,08,46,10.60
2018,04,25,08,47,10.70
2018,04,25,08,48,10.80
2018,04,25,08,49,10.80
2018,04,25,08,50,10.90
2018,04,25,08,51,11.00
2018,04,25,08,52,11.10
2018,04,25,08,53,11.20
2018,04,25,08,54,11.30
2018,04,25,08,55,11.40
2018,04,25,08,56,11.50
2018,04,25,08,57,11.50
2018,04,25,08,58,11.60
2018,04,25,08,59,11.70
2018,04,25,09,00,11.70
2018,04,25,09,01,11.80
2018,04,25,09,02,11.90
2018,04,25,09,03,11.90
2018,04,25,09,04,12.00
2018,04,25,09,05,12.10
2018,04,25,09,06,12.20
2018,04,25,09,07,12.20
2018,04,25,09,08,12.20
2018,04,25,09,09,12.30
2018,04,25,09,10,12.40
2018,04,25,09,11,12.50
2018,04,25,09,12,12.50
2018,04,25,09,13,12.60
2018,04,25,09,14,12.60
2018,04,25,09,15,12.70
2018,04,25,09,16,12.70
2018,04,25,09,17,12.80
2018,04,25,09,18,12.80
2018,04,25,09,19,12.90
2018,04,25,09,20,12.90
2018,04,25,09,21,13.00
2018,04,25,09,22,13.10
2018,04,25,09,23,13.20
2018,04,25,09,24,13.20
2018,04,25,09,25,13.30
2018,04,25,09,26,13.40
2018,04,25,09,27,13.50
2018,04,25,09,28,13.60
2018,04,25,09,29,13.70
2018,04,25,09,30,13.80
2018,04,25,09,31,13.90
2018,04,25,09,32,13.90
2018,04,25,09,33,13.90
2018,04,25,09,34,13.90
2018,04,25,09,35,13.80
2018,04,25,09,36,13.80
2018,04,25,09,37,13.80
2018,04,25,09,38,13.80
2018,04,25,09,39,13.90
2018,04,25,09,40,14.00
2018,04,25,09,41,14.10
2018,04,25,09,42,14.20
2018,04,25,09,43,14.30
2018,04,25,09,44,14.40
2018,04,25,09,45,14.50
2018,04,25,09,46,14.60
2018,04,25,09,47,14.70
2018,04,25,09,48,14.80
2018,04,25,09,49,14.90
2018,04,25,09,50,15.00
2018,04,25,09,51,15.00
2018,04,25,09,52,15.10
2018,04,25,09,53,15.20
2018,04,25,09,54,15.30
2018,04,25,09,55,15.30
2018,04,25,09,56,15.40
2018,04,25,09,57,15.50
2018,04,25,09,58,15.60
2018,04,25,09,59,15.70
2018,04,25,10,00,15.80
2018,04,25,10,01,15.90
2018,04,25,10,02,16.10
2018,04,25,10,03,16.20
2018,04,25,10,04,16.20
2018,04,25,10,05,16.30
2018,04,25,10,06,16.30
2018,04,25,10,07,16.40
2018,04,25,10,08,16.40
2018,04,25,10,09,16.50
2018,04,25,10,10,16.60
2018,04,25,10,11,16.60
2018,04,25,10,12,16.70
2018,04,25,10,13,16.80
2018,04,25,10,14,17.00
2018,04,25,10,15,17.10
2018,04,25,10,16,17.20
2018,04,25,10,17,17.30
2018,04,25,10,18,17.40
2018,04,25,10,19,17.50
2018,04,25,10,20,17.60
2018,04,25,10,21,17.70
2018,04,25,10,22,17.80
2018,04,25,10,23,17.80
2018,04,25,10,24,17.80
2018,04,25,10,25,17.80
2018,04,25,10,26,17.80
2018,04,25,10,27,18.00
2018,04,25,10,28,18.20
2018,04,25,10,29,18.30
2018,04,25,10,30,18.40
2018,04,25,10,31,18.50
2018,04,25,10,32,18.50
2018,04,25,10,33,18.60
2018,04,25,10,34,18.60
2018,04,25,10,35,18.70
2018,04,25,10,36,18.70
2018,04,25,10,37,18.70
2018,04,25,10,38,18.70
2018,04,25,10,39,18.70
2018,04,25,10,40,18.80
2018,04,25,10,41,18.80
2018,04,25,10,42,18.90
2018,04,25,10,43,18.90
2018,04,25,10,44,19.00
2018,04,25,10,45,19.00
2018,04,25,10,46,19.10
2018,04,25,10,47,19.10
2018,04,25,10,48,19.10
2018,04,25,10,49,19.10
2018,04,25,10,50,19.10
2018,04,25,10,51,19.20
2018,04,25,10,52,19.30
2018,04,25,10,53,19.40
2018,04,25,10,54,19.40
2018,04,25,10,55,19.50
2018,04,25,10,56,19.50
2018,04,25,10,57,19.60
2018,04,25,10,58,19.70
2018,04,25,10,59,19.80
2018,04,25,11,00,19.80
2018,04,25,11,01,19.80
2018,04,25,11,02,19.90
2018,04,25,11,03,19.90
2018,04,25,11,04,19.90
2018,04,25,11,05,20.00
2018,04,25,11,06,20.00
2018,04,25,11,07,20.00
2018,04,25,11,08,20.10
2018,04,25,11,09,20.10
2018,04,25,11,10,20.10
2018,04,25,11,11,20.10
2018,04,25,11,12,20.00
2018,04,25,11,13,19.90
2018,04,25,11,14,19.90
2018,04,25,11,15,19.90
2018,04,25,11,16,19.90
2018,04,25,11,17,19.90
2018,04,25,11,18,19.80
2018,04,25,11,19,19.80
2018,04,25,11,20,19.80
2018,04,25,11,21,19.80
2018,04,25,11,22,19.80
2018,04,25,11,23,19.90
2018,04,25,11,24,19.90
2018,04,25,11,25,20.10
2018,04,25,11,26,20.20
2018,04,25,11,27,20.30
2018,04,25,11,28,20.30
2018,04,25,11,29,20.40
2018,04,25,11,30,20.50
2018,04,25,11,31,20.60
2018,04,25,11,32,20.70
2018,04,25,11,33,20.90
2018,04,25,11,34,21.00
2018,04,25,11,35,21.10
2018,04,25,11,36,21.30
2018,04,25,11,37,21.40
2018,04,25,11,38,21.50
2018,04,25,11,39,21.50
2018,04,25,11,40,21.60
2018,04,25,11,41,21.60
2018,04,25,11,42,21.60
2018,04,25,11,43,21.70
2018,04,25,11,44,21.80
2018,04,25,11,45,21.80
2018,04,25,11,46,21.90
2018,04,25,11,47,22.00
2018,04,25,11,48,22.00
2018,04,25,11,49,22.10
2018,04,25,11,50,22.20
2018,04,25,11,51,22.20
2018,04,25,11,52,22.20
2018,04,25,11,53,22.30
2018,04,25,11,54,22.30
2018,04,25,11,55,22.30
2018,04,25,11,56,22.30
2018,04,25,11,57,22.40
2018,04,25,11,58,22.40
2018,04,25,11,59,22.50
2018,04,25,12,00,22.50
2018,04,25,12,01,22.60
2018,04,25,12,02,22.60
2018,04,25,12,03,22.60
2018,04,25,12,04,22.60
2018,04,25,12,05,22.70
2018,04,25,12,06,22.70
2018,04,25,12,07,22.70
2018,04,25,12,08,22.70
2018,04,25,12,09,22.50
2018,04,25,12,10,22.40
2018,04,25,12,11,22.40
2018,04,25,12,12,22.30
2018,04,25,12,13,22.20
2018,04,25,12,14,22.20
2018,04,25,12,15,22.10
2018,04,25,12,16,22.10
2018,04,25,12,17,22.10
2018,04,25,12,18,22.20
2018,04,25,12,19,22.20
2018,04,25,12,20,22.30
2018,04,25,12,21,22.30
2018,04,25,12,22,22.40
2018,04,25,12,23,22.40
2018,04,25,12,24,22.50
2018,04,25,12,25,22.50
2018,04,25,12,26,22.60
2018,04,25,12,27,22.70
2018,04,25,12,28,22.70
2018,04,25,12,29,22.60
2018,04,25,12,30,22.50
2018,04,25,12,31,22.30
2018,04,25,12,32,22.20
2018,04,25,12,33,22.10
2018,04,25,12,34,22.00
2018,04,25,12,35,22.00
2018,04,25,12,36,21.90
2018,04,25,12,37,21.90
2018,04,25,12,38,21.90
2018,04,25,12,39,21.90
2018,04,25,12,40,21.90
2018,04,25,12,41,21.90
2018,04,25,12,42,21.80
2018,04,25,12,43,21.80
2018,04,25,12,44,21.70
2018,04,25,12,45,21.70
2018,04,25,12,46,21.70
2018,04,25,12,47,21.60
2018,04,25,12,48,21.50
2018,04,25,12,49,21.40
2018,04,25,12,50,21.30
2018,04,25,12,51,21.10
2018,04,25,12,52,21.00
2018,04,25,12,53,20.90
2018,04,25,12,54,20.80
2018,04,25,12,55,20.80
2018,04,25,12,56,20.70
2018,04,25,12,57,20.60
2018,04,25,12,58,20.60
2018,04,25,12,59,20.60
2018,04,25,13,00,20.60
2018,04,25,13,01,20.60
2018,04,25,13,02,20.60
2018,04,25,13,03,20.70
2018,04,25,13,04,20.70
2018,04,25,13,05,20.70
2018,04,25,13,06,20.70
2018,04,25,13,07,20.70
2018,04,25,13,08,20.80
2018,04,25,13,09,20.80
2018,04,25,13,10,20.80
2018,04,25,13,11,20.80
2018,04,25,13,12,20.80
2018,04,25,13,13,20.80
2018,04,25,13,14,20.90
2018,04,25,13,15,20.80
2018,04,25,13,16,20.80
2018,04,25,13,17,20.90
2018,04,25,13,18,21.00
2018,04,25,13,19,21.00
2018,04,25,13,20,21.10
2018,04,25,13,21,21.10
2018,04,25,13,22,21.10
2018,04,25,13,23,21.10
2018,04,25,13,24,21.10
2018,04,25,13,25,21.20
2018,04,25,13,26,21.20
2018,04,25,13,27,21.20
2018,04,25,13,28,21.30
2018,04,25,13,29,21.30
2018,04,25,13,30,21.30
2018,04,25,13,31,21.30
2018,04,25,13,32,21.30
2018,04,25,13,33,21.30
2018,04,25,13,34,21.30
2018,04,25,13,35,21.40
2018,04,25,13,36,21.40
2018,04,25,13,37,21.50
2018,04,25,13,38,21.40
2018,04,25,13,39,21.40
2018,04,25,13,40,21.40
2018,04,25,13,41,21.40
2018,04,25,13,42,21.40
2018,04,25,13,43,21.50
2018,04,25,13,44,21.50
2018,04,25,13,45,21.50
2018,04,25,13,46,21.50
2018,04,25,13,47,21.60
2018,04,25,13,48,21.60
2018,04,25,13,49,21.60
2018,04,25,13,50,21.60
2018,04,25,13,51,21.70
2018,04,25,13,52,21.70
2018,04,25,13,53,21.70
2018,04,25,13,54,21.70
2018,04,25,13,55,21.70
2018,04,25,13,56,21.80
2018,04,25,13,57,21.80
2018,04,25,13,58,21.80
2018,04,25,13,59,21.90
2018,04,25,14,00,22.00
2018,04,25,14,01,22.00
2018,04,25,14,02,22.20
2018,04,25,14,03,22.20
2018,04,25,14,04,22.20
2018,04,25,14,05,22.20
2018,04,25,14,06,22.20
2018,04,25,14,07,22.20
2018,04,25,14,08,22.20
2018,04,25,14,09,22.20
2018,04,25,14,10,22.10
2018,04,25,14,11,22.10
2018,04,25,14,12,22.10
2018,04,25,14,13,22.10
2018,04,25,14,14,22.10
2018,04,25,14,15,22.20
2018,04,25,14,16,22.20
2018,04,25,14,17,22.20
2018,04,25,14,18,22.20
2018,04,25,14,19,22.20
2018,04,25,14,20,22.30
2018,04,25,14,21,22.30
2018,04,25,14,22,22.40
2018,04,25,14,23,22.40
2018,04,25,14,24,22.50
2018,04,25,14,25,22.60
2018,04,25,14,26,22.60
2018,04,25,14,27,22.60
2018,04,25,14,28,22.60
2018,04,25,14,29,22.50
2018,04,25,14,30,22.60
2018,04,25,14,31,22.60
2018,04,25,14,32,22.70
2018,04,25,14,33,22.80
2018,04,25,14,34,22.80
2018,04,25,14,35,22.80
2018,04,25,14,36,22.80
2018,04,25,14,37,22.80
2018,04,25,14,38,22.80
2018,04,25,14,39,22.80
2018,04,25,14,40,22.90
2018,04,25,14,41,22.90
2018,04,25,14,42,23.00
2018,04,25,14,43,23.00
2018,04,25,14,44,23.10
2018,04,25,14,45,23.10
2018,04,25,14,46,23.10
2018,04,25,14,47,23.10
2018,04,25,14,48,23.10
2018,04,25,14,49,23.10
2018,04,25,14,50,23.10
2018,04,25,14,51,23.10
2018,04,25,14,52,23.10
2018,04,25,14,53,23.00
2018,04,25,14,54,23.00
2018,04,25,14,55,22.90
2018,04,25,14,56,23.00
2018,04,25,14,57,23.00
2018,04,25,14,58,23.00
2018,04,25,14,59,23.00
2018,04,25,15,00,22.90
2018,04,25,15,01,22.90
2018,04,25,15,02,22.80
2018,04,25,15,03,22.80
2018,04,25,15,04,22.80
2018,04,25,15,05,22.80
2018,04,25,15,06,22.80
2018,04,25,15,07,22.80
2018,04,25,15,08,22.80
2018,04,25,15,09,22.80
2018,04,25,15,10,22.80
2018,04,25,15,11,22.80
2018,04,25,15,12,22.80
2018,04,25,15,13,22.80
2018,04,25,15,14,22.80
2018,04,25,15,15,22.90
2018,04,25,15,16,22.90
2018,04,25,15,17,22.90
2018,04,25,15,18,22.90
2018,04,25,15,19,22.90
2018,04,25,15,20,22.80
2018,04,25,15,21,22.80
2018,04,25,15,22,22.80
2018,04,25,15,23,22.70
2018,04,25,15,24,22.80
2018,04,25,15,25,22.80
2018,04,25,15,26,22.90
2018,04,25,15,27,22.90
2018,04,25,15,28,22.90
2018,04,25,15,29,22.90
2018,04,25,15,30,22.90
2018,04,25,15,31,22.90
2018,04,25,15,32,22.80
2018,04,25,15,33,22.80
2018,04,25,15,34,22.80
2018,04,25,15,35,22.80
2018,04,25,15,36,22.90
2018,04,25,15,37,22.90
2018,04,25,15,38,22.80
2018,04,25,15,39,22.80
2018,04,25,15,40,22.80
2018,04,25,15,41,22.90
2018,04,25,15,42,22.90
2018,04,25,15,43,22.90
2018,04,25,15,44,23.00
2018,04,25,15,45,23.00
2018,04,25,15,46,23.00
2018,04,25,15,47,22.90
2018,04,25,15,48,22.90
2018,04,25,15,49,22.90
2018,04,25,15,50,22.90
2018,04,25,15,51,22.90
2018,04,25,15,52,22.80
2018,04,25,15,53,22.70
2018,04,25,15,54,22.70
2018,04,25,15,55,22.70
2018,04,25,15,56,22.70
2018,04,25,15,57,22.70
2018,04,25,15,58,22.70
2018,04,25,15,59,22.80
2018,04,25,16,00,22.80
2018,04,25,16,01,22.90
2018,04,25,16,02,22.90
2018,04,25,16,03,22.90
2018,04,25,16,04,22.90
2018,04,25,16,05,22.90
2018,04,25,16,06,22.90
2018,04,25,16,07,22.90
2018,04,25,16,08,23.00
2018,04,25,16,09,23.10
2018,04,25,16,10,23.10
2018,04,25,16,11,23.20
2018,04,25,16,12,23.20
2018,04,25,16,13,23.30
2018,04,25,16,14,23.40
2018,04,25,16,15,23.40
2018,04,25,16,16,23.40
2018,04,25,16,17,23.40
2018,04,25,16,18,23.30
2018,04,25,16,19,23.30
2018,04,25,16,20,23.30
2018,04,25,16,21,23.30
2018,04,25,16,22,23.30
2018,04,25,16,23,23.30
2018,04,25,16,24,23.30
2018,04,25,16,25,23.30
2018,04,25,16,26,23.30
2018,04,25,16,27,23.30
2018,04,25,16,28,23.20
2018,04,25,16,29,23.20
2018,04,25,16,30,23.10
2018,04,25,16,31,23.10
2018,04,25,16,32,23.10
2018,04,25,16,33,23.00
2018,04,25,16,34,23.00
2018,04,25,16,35,23.00
2018,04,25,16,36,23.00
2018,04,25,16,37,23.10
2018,04,25,16,38,23.10
2018,04,25,16,39,23.10
2018,04,25,16,40,23.10
2018,04,25,16,41,23.10
2018,04,25,16,42,23.20
2018,04,25,16,43,23.20
2018,04,25,16,44,23.10
2018,04,25,16,45,23.00
2018,04,25,16,46,22.90
2018,04,25,16,47,22.90
2018,04,25,16,48,22.80
2018,04,25,16,49,22.70
2018,04,25,16,50,22.60
2018,04,25,16,51,22.60
2018,04,25,16,52,22.50
2018,04,25,16,53,22.40
2018,04,25,16,54,22.40
2018,04,25,16,55,22.40
2018,04,25,16,56,22.30
2018,04,25,16,57,22.20
2018,04,25,16,58,22.20
2018,04,25,16,59,22.10
2018,04,25,17,00,22.10
2018,04,25,17,01,22.00
2018,04,25,17,02,22.00
2018,04,25,17,03,22.00
2018,04,25,17,04,22.00
2018,04,25,17,05,22.00
2018,04,25,17,06,22.00
2018,04,25,17,07,22.00
2018,04,25,17,08,22.00
2018,04,25,17,09,21.90
2018,04,25,17,10,21.90
2018,04,25,17,11,21.90
2018,04,25,17,12,21.90
2018,04,25,17,13,21.90
2018,04,25,17,14,21.90
2018,04,25,17,15,21.80
2018,04,25,17,16,21.80
2018,04,25,17,17,21.90
2018,04,25,17,18,21.80
2018,04,25,17,19,21.80
2018,04,25,17,20,21.80
2018,04,25,17,21,21.80
2018,04,25,17,22,21.80
2018,04,25,17,23,21.80
2018,04,25,17,24,21.80
2018,04,25,17,25,21.80
2018,04,25,17,26,21.70
2018,04,25,17,27,21.70
2018,04,25,17,28,21.70
2018,04,25,17,29,21.70
2018,04,25,17,30,21.70
2018,04,25,17,31,21.70
2018,04,25,17,32,21.60
2018,04,25,17,33,21.60
2018,04,25,17,34,21.60
2018,04,25,17,35,21.60
2018,04,25,17,36,21.60
2018,04,25,17,37,21.60
2018,04,25,17,38,21.60
2018,04,25,17,39,21.60
2018,04,25,17,40,21.60
2018,04,25,17,41,21.60